Theta_e
344 350 356 355 354 354 352 354 357 357 356 357 355 360 361 359 361 361 361 361 361 360 360 360 361 362 363 361 361 360 360 360 360 360 359 358 358 358 356 355 355 351 354
346 350 355 355 355 354 353 354 355 357 359 357 360 362 361 361 360 361 361 361 361 360 359 359 361 361 360 361 361 360 360 360 361 360 360 360 358 359 358 357 357 355 356
346 349 352 357 356 355 354 354 357 356 358 360 359 360 359 361 362 358 361 362 361 360 358 359 360 360 359 359 360 360 360 360 360 360 359 351 353 358 357 357 358 357 357
347 347 350 359 357 355 355 355 357 357 358 360 360 361 361 361 361 362 361 359 359 359 360 361 360 359 359 359 359 358 357 359 359 358 351 351 354 358 357 356 356 358 357
347 348 349 357 358 356 356 357 358 359 359 361 360 362 362 361 361 361 358 356 355 355 357 358 358 357 358 358 357 358 361 359 355 352 346 346 345 356 357 356 356 354 354
348 348 355 357 358 357 357 358 359 360 361 361 361 362 362 360 361 360 361 362 360 359 356 354 353 355 355 354 354 356 358 360 355 348 347 348 343 351 352 355 356 356 356
348 351 354 361 360 360 359 359 360 361 362 362 362 362 361 361 360 359 359 359 359 358 356 355 353 351 351 352 354 357 357 353 343 343 344 343 345 352 350 350 349 349 350
351 352 353 359 360 361 362 361 361 362 361 361 362 361 361 360 360 360 359 358 359 357 355 355 353 353 353 353 358 364 358 353 347 344 345 344 352 351 350 349 349 349 349
352 352 352 353 357 361 362 361 360 362 360 360 360 359 361 361 360 359 359 359 359 359 358 357 357 356 356 357 358 360 358 357 346 347 350 348 355 351 350 349 350 350 350
348 350 349 350 351 352 351 362 361 361 360 361 360 360 360 360 360 361 361 360 358 358 358 358 358 358 358 359 359 359 357 354 339 341 343 346 357 350 350 352 352 352 353
345 343 345 348 347 350 352 357 362 363 363 361 359 360 356 350 350 354 357 360 359 360 359 359 360 361 361 359 358 359 358 343 341 345 344 350 352 350 349 350 352 353 354
338 340 343 346 346 350 356 353 352 356 354 352 350 350 347 348 348 355 356 353 355 358 362 362 363 363 361 354 352 356 350 351 341 343 345 354 355 355 353 354 355 356 356
340 342 345 344 345 346 351 350 351 349 347 342 343 341 344 347 344 346 341 337 339 349 347 352 351 353 353 351 350 349 349 337 334 336 341 354 355 355 357 359 360 361 360
340 343 345 344 344 342 348 347 348 349 347 336 335 344 339 337 340 341 343 344 344 345 345 346 347 348 347 344 346 347 346 332 332 334 337 349 357 355 358 360 362 362 362
340 339 344 342 342 342 346 346 346 346 346 346 347 346 334 334 336 342 344 343 344 343 343 343 344 344 342 342 343 346 343 336 335 339 338 350 357 360 359 361 362 364 363
340 336 343 341 340 345 344 345 345 346 343 342 342 343 337 341 343 344 344 345 345 344 343 341 343 343 340 340 339 336 336 339 341 342 344 347 355 355 357 361 362 365 366
339 337 342 340 345 345 343 343 343 343 344 336 336 344 345 345 344 343 344 344 348 351 351 348 346 346 343 343 342 346 348 349 351 349 349 348 346 353 356 358 359 359 364
340 341 343 346 343 343 341 341 342 343 342 339 338 343 342 347 342 343 341 343 349 345 347 347 346 342 344 342 341 344 346 349 348 347 349 346 343 345 349 354 356 357 362
342 342 342 339 340 339 340 340 339 343 342 338 340 337 342 344 346 340 340 347 348 347 348 348 347 346 341 341 343 341 341 342 346 350 346 344 341 342 345 349 352 355 361
342 342 339 337 339 339 341 343 340 342 340 337 340 341 344 339 342 335 345 344 348 349 348 349 349 348 345 341 340 337 338 341 344 344 344 342 340 339 343 344 344 346 354
340 338 336 336 338 341 336 340 337 339 340 339 343 346 342 337 338 347 342 346 343 343 344 351 351 346 342 338 334 333 335 338 338 341 343 337 332 337 341 344 344 344 343
339 338 337 338 338 340 338 340 340 343 343 342 344 344 339 335 340 348 345 339 336 340 346 350 350 345 339 338 338 333 328 333 335 338 339 338 337 339 340 342 343 343 340
339 338 339 339 339 342 342 346 343 342 342 341 343 343 345 345 345 349 348 334 336 338 342 349 347 341 336 337 334 333 323 323 328 332 335 336 337 337 337 341 341 343 341
339 341 340 340 340 343 344 342 339 337 335 337 340 341 342 348 344 348 349 341 343 345 346 351 348 339 338 333 335 339 331 329 322 320 329 333 335 336 337 340 339 341 340
341 341 342 341 341 342 344 341 337 336 336 338 340 342 339 344 345 345 349 347 346 344 346 348 342 333 333 331 329 334 334 333 329 324 321 324 331 335 337 338 339 338 340
341 342 341 341 340 341 343 342 338 337 338 340 337 340 339 341 344 346 346 347 346 340 345 349 346 335 337 337 335 333 335 334 331 327 324 325 327 332 335 338 338 338 339
Wind_Speed
1 3 12 11 11 8 7 10 14 12 12 10 11 12 14 14 13 13 14 13 12 13 12 13 13 14 14 15 13 12 10 11 11 11 10 9 8 10 11 11 10 6 8
4 3 10 10 8 5 7 10 12 10 11 12 11 13 13 13 13 12 12 13 12 12 12 13 13 14 14 14 12 13 11 11 12 11 10 8 11 9 9 8 8 7 8
4 4 6 8 7 5 7 6 9 9 8 12 12 13 13 13 13 13 12 13 11 12 12 11 12 13 11 11 12 12 11 10 11 11 11 5 4 9 8 8 8 8 7
6 4 5 9 9 8 8 7 9 10 8 11 12 12 13 12 12 12 12 11 11 10 11 11 11 10 10 10 10 7 4 10 10 10 4 4 5 7 7 7 7 7 7
6 4 5 10 10 9 8 8 7 10 10 11 12 12 12 11 10 11 11 10 10 10 10 9 8 7 7 8 9 9 5 8 10 7 5 5 4 6 7 5 5 6 5
6 4 8 10 10 9 7 8 7 9 10 10 11 11 11 10 10 9 8 8 7 8 8 8 7 6 6 8 8 8 10 7 8 5 4 5 3 4 4 4 5 5 6
6 4 5 9 10 10 7 8 9 7 10 11 10 10 10 8 8 6 6 6 7 8 7 6 5 6 6 8 9 4 9 9 4 4 4 3 1 4 4 3 3 3 2
7 5 4 9 11 11 11 9 9 8 7 9 9 9 8 7 6 6 6 5 7 8 8 7 5 6 9 8 9 11 8 7 4 3 3 2 2 3 3 2 1 0 1
5 5 4 3 8 11 10 11 10 8 9 8 8 8 7 6 6 6 5 6 6 6 6 6 6 7 7 7 7 5 2 5 4 2 3 2 3 2 1 1 2 3 4
4 5 4 1 3 5 6 11 12 9 7 7 5 7 5 6 6 7 6 4 4 4 4 4 5 5 4 4 3 4 3 7 4 3 2 2 5 2 2 2 4 6 8
4 3 3 3 2 4 4 6 10 11 9 7 5 5 6 3 4 5 3 4 5 5 5 4 4 4 5 4 4 4 2 1 2 2 1 5 5 3 3 4 6 8 10
5 3 3 4 3 3 2 4 3 4 3 2 1 3 2 2 2 4 7 11 10 9 8 7 7 8 7 4 3 5 2 2 2 2 2 7 6 5 5 7 9 11 12
7 4 5 5 4 3 3 2 2 2 2 2 2 3 3 2 2 3 2 3 3 7 4 5 4 3 4 3 3 3 3 1 0 2 4 7 5 7 9 9 11 13 14
9 7 6 6 5 4 2 2 3 3 2 1 2 2 1 1 2 2 1 2 3 2 4 3 3 4 5 6 4 3 1 2 1 0 1 8 10 11 14 16 15 15 15
8 6 7 6 5 4 4 2 2 2 2 2 2 2 1 2 2 3 2 3 3 2 2 2 2 3 4 5 2 4 3 2 2 4 3 10 10 10 10 12 14 16 13
9 7 7 7 6 5 5 4 3 2 3 3 2 2 3 3 0 2 3 4 4 3 3 1 1 1 1 4 4 5 7 4 3 3 2 2 10 9 11 12 14 14 13
10 9 9 7 6 7 6 4 3 4 4 3 3 5 4 4 2 2 4 4 4 4 3 1 2 1 3 3 9 7 5 5 4 4 4 3 3 8 11 12 13 14 15
9 9 7 8 7 6 6 4 3 4 4 2 4 3 2 3 4 2 3 3 4 4 4 4 3 3 2 5 4 4 3 4 3 3 4 4 3 2 5 14 13 13 15
9 11 7 7 7 6 5 3 3 4 3 3 2 1 2 3 1 1 3 3 4 3 4 3 2 3 5 4 5 4 4 3 2 2 3 3 2 4 0 9 11 16 18
8 9 7 5 7 6 4 2 3 3 1 1 2 1 4 2 4 2 1 3 4 3 5 3 5 7 6 7 7 5 3 3 3 5 5 2 2 4 4 6 2 7 17
6 6 7 7 5 5 2 3 2 3 1 1 3 2 1 0 2 3 1 5 5 5 3 4 2 7 6 2 5 3 3 4 4 4 4 4 5 4 3 5 5 4 6
8 8 7 8 7 4 3 2 3 4 2 1 1 2 2 2 1 1 2 4 4 4 5 5 5 4 4 4 2 2 3 5 4 4 2 2 5 5 8 7 6 6 6
10 9 10 7 9 6 6 4 3 4 3 2 1 2 3 4 3 3 4 5 3 3 3 3 3 6 4 2 2 4 2 5 2 4 4 4 6 5 5 6 5 5 7
12 6 6 7 7 5 6 4 4 4 3 3 2 1 2 4 2 3 4 4 3 1 3 3 3 2 2 3 1 2 2 2 3 4 3 4 4 6 7 5 7 6 6
10 11 8 6 5 7 6 6 5 3 2 1 2 4 3 3 4 3 3 4 3 2 2 4 4 3 2 2 2 1 2 2 2 3 2 5 2 3 4 4 5 5 5
9 8 6 7 6 5 7 7 7 7 5 2 2 3 3 2 2 4 4 2 2 2 1 4 4 2 2 1 1 2 3 2 2 3 2 2 2 4 3 4 3 4 5
Wind_Direction
269 190 157 163 153 143 116 96 86 89 99 102 110 114 106 105 110 108 106 103 101 100 99 100 100 95 89 93 96 95 101 111 109 102 104 105 111 109 116 120 119 118 113
141 131 151 166 157 140 99 74 74 83 103 107 116 109 111 108 108 112 104 102 95 105 103 105 97 94 91 94 95 93 96 96 101 99 100 106 101 106 107 106 115 124 125
125 144 146 150 151 131 106 122 98 100 111 113 109 111 115 107 111 113 107 105 106 101 104 102 101 95 93 93 91 87 89 86 86 84 77 60 82 107 101 113 115 117 129
127 125 125 139 140 136 146 143 114 106 110 113 116 114 111 111 112 109 106 100 99 96 102 99 97 94 89 82 74 73 110 99 98 88 50 36 70 95 94 102 99 101 101
102 117 143 142 143 147 164 129 127 123 126 118 124 119 116 116 115 107 104 108 107 106 99 98 93 90 76 57 45 39 83 161 90 76 62 56 31 78 97 109 97 113 104
114 134 145 146 145 154 160 130 135 124 126 125 123 122 121 111 114 114 111 105 90 89 91 93 88 78 56 38 27 33 70 146 93 80 70 74 51 80 83 79 71 67 71
126 133 146 152 148 145 146 134 129 136 130 130 131 122 122 116 109 109 99 86 74 75 87 79 77 60 47 32 14 348 123 116 106 113 114 103 85 108 105 93 77 66 57
128 131 156 150 151 147 146 141 136 137 140 122 122 124 120 118 107 93 84 78 58 58 61 49 33 32 35 26 20 83 121 136 129 134 129 121 187 143 126 104 101 290 288
118 127 128 159 152 149 138 137 140 144 133 123 117 114 112 98 95 93 77 62 51 45 50 37 13 27 35 29 32 41 64 146 140 182 180 191 195 178 113 346 297 286 279
117 124 125 46 101 121 132 140 139 147 141 121 116 103 107 104 99 87 59 42 47 35 30 23 6 10 25 17 5 20 43 166 166 202 231 213 214 227 242 290 296 298 290
131 139 132 125 86 100 113 147 149 150 153 145 142 142 79 47 34 54 33 16 6 352 345 342 348 326 321 321 328 330 7 185 208 245 253 245 235 250 288 293 297 296 295
167 189 176 146 153 144 130 125 144 143 97 103 128 92 84 77 29 5 20 14 1 341 316 315 316 303 318 321 312 342 341 263 229 262 259 250 245 276 295 300 298 294 290
172 174 182 173 172 187 157 143 92 83 98 51 28 54 9 40 23 60 51 7 354 330 327 329 323 301 304 290 293 297 313 65 123 271 300 292 307 304 304 298 295 294 295
173 182 176 187 177 210 164 150 113 101 102 134 187 90 144 55 43 77 59 287 278 317 312 312 301 305 306 297 271 251 204 163 197 285 350 10 341 332 330 321 313 304 297
182 173 180 180 190 201 175 156 118 156 212 198 184 143 115 102 21 316 12 322 323 323 310 348 351 314 301 305 301 211 209 204 43 24 1 35 9 9 1 349 328 314 320
176 181 174 191 201 189 181 178 181 157 184 157 177 140 137 99 82 314 2 0 4 341 310 4 349 1 357 11 29 37 38 66 66 100 121 97 77 57 34 25 6 2 345
187 176 181 192 202 200 178 191 175 176 178 194 163 168 151 113 117 12 23 3 336 319 314 240 235 97 72 78 53 47 52 40 43 117 136 133 105 64 55 46 19 12 2
162 173 176 181 190 189 155 188 176 185 162 187 170 172 97 141 92 35 7 353 344 355 2 39 20 25 74 66 75 60 63 84 50 132 157 156 166 111 53 43 29 23 13
167 167 188 156 158 159 139 180 166 159 151 182 188 163 101 65 72 21 18 6 5 6 17 17 4 27 53 63 71 53 43 10 307 196 212 193 174 114 260 50 32 31 18
171 173 166 160 139 134 137 117 89 113 130 163 223 236 107 161 140 50 355 47 32 20 18 9 57 59 80 104 82 49 24 341 320 301 288 264 304 355 282 76 26 37 25
165 158 167 153 150 138 120 127 113 162 168 199 232 162 175 93 108 52 5 55 27 44 9 351 102 85 83 97 97 12 340 323 319 305 354 313 299 294 282 40 25 41 29
181 181 167 167 159 157 118 177 131 141 173 137 200 147 157 181 230 43 29 59 53 45 17 17 37 92 73 346 113 69 338 326 319 266 110 324 3 317 18 8 359 4 43
189 193 175 177 163 158 161 113 72 76 69 72 62 150 212 216 202 193 102 77 67 70 24 26 43 84 134 233 87 150 134 230 315 337 326 7 351 338 355 354 314 353 25
195 169 193 165 167 155 132 122 145 146 145 192 180 146 185 206 212 214 138 119 96 76 68 49 59 120 118 155 318 72 16 113 171 333 344 335 1 332 322 348 359 357 357
180 180 188 162 185 152 153 153 143 151 157 160 137 178 190 209 206 227 164 150 139 105 59 92 90 111 159 130 117 354 7 3 41 116 310 332 348 299 305 328 320 332 328
166 174 165 165 186 183 157 159 168 175 178 164 208 205 198 226 213 221 185 186 193 165 136 109 122 167 158 151 168 194 192 183 251 107 75 333 299 303 302 268 313 294 283